Wind_Speed
14 16 17 14 12 12 14 16 17 18 19 19 17 15 15 13 14 11 5 5 2 6 14 10 9 9 6 4 5 4 6 3 6 8 11 6 9 4 5 2 4 9 11 9 9 11 14 6 6 5 5 6 8 10
14 19 15 13 15 16 17 17 17 17 14 14 14 14 13 12 12 11 4 8 8 8 10 10 13 13 10 6 6 3 4 3 5 4 2 4 5 3 6 5 4 5 4 5 2 4 5 2 4 2 3 8 10 12
17 18 14 14 13 14 15 15 14 14 15 15 15 13 13 12 11 9 9 8 6 6 14 8 4 3 9 18 13 6 3 2 4 5 5 5 5 5 7 9 3 4 1 3 3 5 4 6 5 4 6 7 8 11
19 15 13 12 12 13 14 15 15 15 16 15 14 13 13 11 10 8 8 7 5 4 5 1 2 1 4 5 13 16 6 2 3 2 1 4 5 3 5 4 7 2 6 4 2 6 6 7 8 11 12 12 14 13
13 13 12 13 13 14 15 16 15 15 16 15 15 13 11 9 7 6 4 3 2 1 6 9 13 3 4 10 9 13 15 5 6 6 2 2 9 4 4 4 8 9 7 7 2 8 3 10 11 13 15 14 13 16
12 12 12 12 14 14 14 15 15 15 15 15 15 13 9 6 4 2 2 2 1 5 4 4 6 1 2 3 12 11 13 13 9 4 4 5 22 13 5 5 5 1 0 3 4 7 5 10 12 11 14 15 14 15
9 10 11 13 14 15 15 16 16 16 15 15 15 10 5 3 2 1 2 1 1 5 3 5 2 2 2 3 8 11 13 12 13 16 13 12 12 14 9 9 6 1 0 2 4 9 8 11 8 12 14 15 17 16
8 9 11 13 14 15 16 17 17 16 16 15 10 3 3 1 2 1 2 2 2 4 3 3 3 4 2 3 6 9 12 15 11 14 12 14 17 13 9 10 13 8 7 3 4 4 1 11 13 14 15 17 18 19
8 9 11 11 14 16 17 18 17 16 15 8 2 3 4 3 2 4 4 2 4 4 5 2 3 2 3 4 3 6 9 7 11 9 15 11 11 11 7 14 13 11 10 8 9 6 8 12 14 17 16 16 17 19
9 11 11 11 12 15 17 17 16 15 11 3 3 1 2 2 2 3 2 3 3 3 4 4 4 4 8 5 3 5 7 7 6 12 13 14 14 23 20 16 11 8 10 8 11 11 12 13 15 16 17 15 16 20
10 10 10 11 11 13 15 14 16 15 10 5 3 2 4 2 1 3 3 4 4 3 5 4 5 6 6 5 5 4 3 4 5 7 11 9 14 20 31 26 21 17 14 13 12 10 12 13 16 18 18 18 19 24
11 10 10 11 11 11 12 12 15 14 10 8 5 3 2 2 3 3 3 4 4 1 0 3 6 7 6 5 5 4 4 3 5 7 5 11 11 17 19 24 26 24 19 14 13 11 11 13 16 18 20 21 26 31
14 12 11 10 10 11 10 11 12 14 11 3 2 2 2 2 2 4 5 3 2 2 4 4 4 5 4 6 7 3 5 5 2 4 5 7 4 6 12 14 14 17 18 16 14 12 12 14 17 23 26 29 32 38
14 11 10 9 9 10 9 10 12 12 3 2 2 2 3 3 4 1 2 1 4 5 11 12 10 5 6 4 2 4 4 2 4 5 4 3 3 2 5 8 15 19 18 18 16 16 18 20 24 26 29 33 42 39
14 11 10 8 8 9 8 9 9 6 2 3 3 3 4 3 3 1 5 6 5 9 12 12 8 3 3 4 5 3 4 5 3 1 3 7 1 4 8 14 18 19 19 19 20 22 23 26 29 34 38 40 40 38
12 10 9 6 6 5 7 9 6 2 2 3 4 4 4 6 3 4 6 8 9 11 16 6 2 3 3 3 2 5 3 1 3 4 7 1 3 6 13 17 18 19 21 23 23 26 30 35 43 44 40 35 28 25
10 11 4 3 4 5 6 3 2 2 3 3 3 5 7 7 7 8 9 9 10 12 2 2 2 5 4 3 3 3 4 6 7 9 11 1 3 8 14 17 22 22 25 26 32 39 45 46 40 33 32 28 24 22
14 8 6 2 2 3 2 1 2 2 4 5 5 2 3 8 11 11 8 9 9 5 4 2 6 4 2 3 3 5 13 18 11 8 8 4 5 9 14 23 27 30 34 41 48 46 43 37 32 28 27 24 24 24
11 10 5 3 1 1 1 1 1 3 4 6 7 7 8 11 13 14 17 16 13 13 9 5 4 2 3 4 9 14 17 12 11 11 7 7 8 11 19 24 32 38 44 44 43 42 33 23 26 29 27 22 19 17
9 8 7 5 2 0 1 1 2 4 4 4 8 7 9 11 13 15 14 12 11 5 4 2 2 5 6 15 14 19 13 10 3 15 16 14 12 15 26 34 42 44 43 43 37 27 23 27 24 17 17 17 19 21
13 9 8 4 1 0 1 2 3 3 6 4 5 10 8 11 8 6 7 10 2 2 3 4 9 11 15 11 5 1 8 15 17 21 22 22 27 30 36 44 44 43 40 34 29 27 26 30 22 18 18 19 16 9
11 10 4 2 1 1 2 2 4 6 4 5 7 7 6 6 5 6 11 4 4 4 4 6 7 3 8 14 16 15 16 20 23 24 27 31 35 36 36 37 39 32 32 29 27 25 24 21 22 22 16 13 11 10
10 6 2 1 1 1 2 2 3 2 3 4 7 3 3 3 7 7 3 9 6 12 5 6 11 14 16 16 17 21 22 26 29 25 26 32 33 30 30 31 35 34 29 27 27 27 25 22 18 16 14 9 10 11
6 2 1 0 1 2 2 2 3 3 4 2 2 2 4 7 9 6 3 7 14 12 9 15 23 25 30 31 32 32 33 33 37 36 33 31 31 33 32 32 29 28 23 22 20 18 17 14 11 10 10 9 9 9
1 1 0 1 1 1 2 2 2 2 2 2 1 2 4 6 3 4 5 11 23 22 25 25 26 26 29 29 32 35 35 34 35 36 33 34 34 33 31 27 24 22 19 18 17 17 17 13 9 10 10 9 8 5
1 1 1 0 1 2 2 2 1 2 2 2 4 2 3 4 5 5 4 22 30 31 33 35 31 32 32 30 31 29 24 22 22 23 20 17 17 17 17 16 14 11 9 9 10 11 12 11 11 11 9 6 2 1
1 1 1 2 2 3 4 4 4 3 2 3 1 2 3 5 5 6 14 13 15 22 25 24 23 21 22 21 20 18 17 18 20 19 16 15 15 13 11 11 11 9 8 8 9 9 9 9 8 6 4 2 1 2
1 2 2 3 3 4 3 4 1 4 3 2 4 5 3 3 3 10 13 15 23 23 21 20 20 18 17 16 15 14 14 14 14 14 15 15 14 13 12 11 10 10 10 9 8 8 7 6 4 3 3 2 2 3
2 3 2 3 3 1 9 6 6 6 8 13 12 8 6 9 10 9 9 10 11 14 14 14 13 13 15 16 16 15 13 12 12 13 13 13 12 12 11 11 10 9 8 7 9 8 6 5 3 2 2 2 2 2
5 6 12 14 6 6 16 18 28 30 29 28 26 21 14 10 10 10 12 14 14 15 14 14 13 13 13 14 15 16 15 14 13 12 12 12 11 10 9 9 9 8 8 8 6 6 6 4 2 1 1 2 4 5
14 21 28 27 24 25 27 27 25 24 24 24 22 22 18 15 16 16 15 12 12 13 15 16 17 16 15 14 14 14 15 14 14 14 14 13 12 11 10 9 8 8 7 6 5 3 2 2 3 4 6 7 9 10
24 23 25 21 23 23 22 22 22 19 19 20 19 21 22 21 19 14 13 15 15 15 14 15 15 15 15 15 15 15 15 13 12 11 11 9 8 7 6 5 4 3 3 3 4 5 7 8 9 11 12 14 15 17
22 22 21 20 18 17 14 12 12 13 15 15 16 14 14 13 11 9 10 11 11 10 10 10 10 9 9 9 8 9 9 8 9 9 9 8 8 5 3 4 4 6 6 8 9 10 12 13 13 14 16 17 18 18
Wind_Direction
307 306 301 302 309 315 309 309 312 314 316 318 326 334 339 344 346 353 306 305 296 277 278 270 274 290 303 273 289 21 260 127 256 250 243 177 255 201 239 353 236 214 218 220 237 258 244 119 153 249 52 95 124 128
314 325 317 307 293 290 302 314 317 325 327 333 336 333 335 337 339 343 315 311 293 262 265 282 267 257 248 254 320 314 24 79 30 281 284 315 228 188 254 199 168 241 329 309 310 36 67 100 58 115 128 131 119 125
322 324 323 325 320 317 314 320 326 329 328 330 327 330 328 328 331 329 308 307 313 283 291 267 266 251 245 241 238 279 154 219 100 73 340 322 286 324 217 219 273 152 220 253 192 148 119 121 131 133 134 128 125 129
317 320 328 331 335 334 333 329 324 324 326 328 328 326 324 318 321 316 299 286 290 288 286 121 3 307 261 234 219 222 273 278 137 81 345 294 292 359 266 328 253 7 171 223 184 142 149 149 125 131 121 119 120 118
311 315 320 326 317 318 319 322 327 324 323 328 328 322 316 311 318 324 319 341 211 247 314 299 299 301 265 223 218 217 212 221 213 203 164 254 311 307 215 292 243 187 220 227 268 133 206 163 150 139 132 130 129 130
309 316 322 330 331 328 327 328 328 326 327 328 330 323 312 305 318 8 240 18 53 23 316 304 337 301 350 218 206 202 201 214 220 201 183 184 263 281 253 239 68 4 155 336 82 107 117 137 148 149 143 141 140 137
304 319 329 329 330 332 334 332 334 334 331 328 325 316 305 281 270 194 4 273 209 355 297 297 270 152 282 212 197 206 211 211 218 221 236 195 237 238 270 262 104 131 78 88 133 129 114 157 164 157 153 147 139 137
297 313 330 332 333 332 332 332 336 337 333 330 327 345 12 140 156 74 190 204 324 313 275 291 281 222 356 229 201 198 200 208 218 230 233 227 213 228 246 244 263 250 263 251 195 201 269 174 161 158 154 150 144 139
291 309 313 323 332 335 334 334 338 340 337 338 13 113 80 97 170 185 183 240 275 266 300 259 297 23 333 257 245 209 210 211 227 221 232 232 235 223 226 244 249 242 239 245 202 195 174 174 168 166 162 161 154 146
283 295 309 316 323 330 333 337 341 344 347 14 97 308 202 195 208 273 251 191 212 224 236 267 270 286 328 293 236 194 212 234 209 221 225 221 239 241 228 238 233 220 227 225 195 195 192 189 181 174 173 170 165 155
273 286 301 313 319 325 335 340 347 354 18 18 356 261 285 266 203 216 233 212 179 226 216 255 299 289 297 284 303 234 229 232 240 223 211 222 230 229 232 237 231 236 231 226 225 221 211 202 189 179 172 167 163 162
265 277 292 307 315 323 332 337 347 3 344 314 298 330 337 216 215 237 218 182 217 310 82 239 245 244 264 233 265 237 243 241 249 136 223 237 240 227 227 228 233 230 223 211 198 199 190 186 182 176 168 163 166 166
256 261 276 299 310 316 325 329 338 343 350 334 342 282 231 192 247 234 191 191 123 221 239 243 293 228 241 237 253 238 241 225 111 209 226 232 102 177 217 228 200 196 191 178 172 175 173 169 166 169 160 167 166 156
252 253 261 280 300 307 316 324 332 339 358 274 280 259 235 187 243 256 63 69 277 275 303 314 301 250 211 218 292 268 263 254 238 226 224 54 6 194 170 174 175 173 170 160 157 158 156 158 162 168 168 161 149 143
248 251 258 274 290 304 309 325 328 332 286 264 241 246 226 272 293 297 321 288 283 301 312 308 277 282 268 220 199 251 239 228 240 17 59 339 292 169 167 162 161 156 149 145 147 147 152 162 157 148 143 136 130 134
235 250 253 263 289 303 312 329 327 306 263 253 246 256 261 261 244 251 257 290 316 324 314 262 10 314 267 249 166 244 255 314 43 15 341 104 147 158 159 154 153 146 143 143 150 160 156 147 135 131 132 137 147 155
204 230 223 227 303 314 317 335 302 265 267 252 246 257 269 283 283 293 294 295 315 322 271 296 216 234 238 201 249 252 7 343 327 319 335 57 145 158 155 150 150 150 150 152 148 142 137 136 136 139 145 154 155 157
193 219 226 222 310 325 299 291 282 271 261 260 277 315 274 283 286 287 284 303 314 278 268 268 295 253 292 324 0 358 330 324 302 290 292 265 172 147 158 162 155 151 146 140 138 136 135 139 142 150 152 154 158 164
188 201 194 182 168 50 325 271 265 276 269 295 287 285 292 290 285 284 294 301 297 288 280 264 259 303 348 346 322 315 316 308 302 289 228 172 154 153 153 148 147 138 138 138 139 142 147 153 154 151 153 158 158 168
167 169 168 159 97 24 301 260 267 275 284 325 296 304 303 287 295 307 312 308 293 264 242 244 287 308 292 305 304 307 303 283 260 106 111 135 145 148 140 146 140 141 141 143 145 152 156 149 152 161 164 166 166 148
136 145 136 107 16 323 275 300 268 275 303 288 313 321 295 302 296 306 317 343 290 308 284 293 315 317 308 312 301 348 81 132 104 112 115 111 126 136 137 141 141 141 142 149 156 155 152 163 165 151 148 153 151 142
141 141 126 137 71 315 283 264 278 297 277 294 313 314 281 296 328 342 340 335 310 311 331 3 331 70 78 76 88 109 105 108 116 115 120 123 118 120 119 134 139 140 150 157 171 172 174 176 159 146 158 149 139 139
127 111 107 117 359 289 304 313 278 257 276 304 316 276 268 315 349 355 9 1 351 33 45 65 93 90 86 87 93 99 106 114 107 102 116 123 131 133 142 150 155 152 138 120 122 114 116 123 135 138 140 137 144 147
110 91 104 138 230 290 300 275 267 290 298 294 284 304 15 4 1 28 9 9 18 53 80 93 95 87 88 90 91 93 100 106 101 98 100 106 115 123 128 125 129 139 149 135 130 129 116 121 122 146 172 160 144 141
325 58 263 270 273 287 265 274 273 271 276 273 6 24 19 16 30 27 9 24 47 63 75 98 95 90 85 90 95 96 100 100 98 99 100 102 105 109 111 114 121 128 133 135 139 146 157 181 174 156 149 140 138 137
332 168 159 200 244 240 302 284 284 305 287 48 38 32 35 47 40 33 35 45 51 59 67 77 77 79 80 84 91 93 87 92 94 84 83 92 100 106 113 115 114 105 117 134 141 143 142 143 145 143 150 175 206 257
33 55 279 273 257 293 281 266 264 276 35 61 46 54 41 54 46 34 49 61 58 55 66 73 72 74 79 76 81 83 84 94 93 90 86 85 87 93 103 108 105 106 114 122 131 138 143 145 148 153 159 168 187 155
284 291 285 311 272 239 254 242 87 39 56 43 52 47 56 57 87 115 86 78 76 74 76 71 77 79 78 75 76 77 75 78 81 82 80 78 75 77 83 91 104 112 110 116 121 130 137 147 160 173 195 215 257 270
320 313 320 278 209 149 30 34 34 53 79 96 105 95 97 101 102 86 78 86 88 82 79 72 68 70 70 69 67 67 72 74 84 88 88 87 85 83 85 86 86 88 92 110 132 134 143 143 154 165 237 255 268 284
37 40 64 75 59 48 69 96 94 97 96 98 104 107 99 83 69 76 87 88 83 74 66 67 69 72 76 78 72 69 64 68 73 80 88 90 92 93 90 88 86 86 86 86 87 84 84 86 67 42 357 297 296 296
95 95 92 94 92 90 95 97 99 101 101 99 96 94 93 94 80 73 76 80 81 77 72 70 73 73 77 76 72 71 70 65 72 80 84 83 85 88 90 89 83 80 80 79 72 63 22 356 307 299 293 292 290 290
99 96 95 93 98 107 107 105 105 104 101 93 95 100 100 93 87 72 52 77 82 84 76 75 77 75 70 68 68 71 74 68 67 68 69 72 73 79 76 69 55 38 10 343 329 321 312 303 298 295 296 295 294 293
97 100 102 104 105 107 106 97 90 87 96 90 86 90 85 81 75 87 68 66 70 75 77 72 67 63 63 62 65 62 61 59 51 51 44 45 52 42 32 341 335 327 311 314 312 307 299 297 293 297 299 301 301 301
Height
1532 1529 1527 1525 1523 1521 1518 1516 1513 1510 1507 1504 1501 1499 1496 1493 1491 1490 1489 1488 1489 1485 1476 1475 1475 1473 1471 1468 1461 1465 1462 1461 1457 1453 1441 1446 1441 1443 1441 1439 1439 1443 1449 1444 1446 1452 1459 1454 1458 1459 1461 1461 1461 1463
1529 1526 1523 1520 1519 1517 1515 1513 1510 1507 1504 1502 1500 1497 1494 1492 1490 1488 1488 1486 1484 1484 1476 1471 1470 1469 1472 1474 1473 1468 1467 1468 1469 1460 1451 1447 1443 1445 1438 1450 1450 1458 1445 1442 1445 1449 1457 1460 1459 1463 1464 1465 1466 1468
1525 1522 1520 1517 1515 1513 1511 1509 1506 1504 1502 1499 1497 1495 1492 1490 1488 1487 1486 1485 1484 1482 1473 1470 1468 1468 1467 1468 1473 1473 1469 1473 1471 1474 1472 1460 1453 1445 1443 1447 1446 1449 1453 1448 1455 1456 1457 1460 1462 1463 1464 1467 1469 1472
1522 1519 1517 1515 1513 1511 1508 1506 1504 1501 1498 1495 1493 1491 1489 1487 1486 1485 1485 1484 1483 1483 1477 1465 1465 1467 1466 1467 1468 1471 1473 1473 1473 1474 1475 1466 1460 1458 1444 1446 1446 1447 1452 1449 1451 1455 1460 1463 1463 1464 1467 1470 1472 1474
1518 1517 1514 1512 1510 1507 1505 1503 1500 1497 1494 1492 1490 1487 1486 1484 1483 1482 1482 1482 1482 1486 1477 1467 1464 1463 1463 1464 1466 1468 1472 1474 1473 1474 1474 1473 1466 1463 1454 1453 1445 1447 1446 1448 1442 1450 1455 1459 1465 1467 1467 1471 1474 1474
1516 1514 1512 1510 1507 1504 1502 1499 1497 1494 1491 1489 1486 1484 1483 1482 1481 1481 1483 1483 1482 1481 1480 1468 1463 1462 1461 1461 1463 1466 1469 1472 1472 1471 1472 1474 1476 1473 1456 1448 1447 1450 1453 1452 1450 1456 1459 1462 1467 1468 1470 1472 1475 1477
1513 1511 1510 1508 1505 1502 1499 1496 1494 1491 1488 1485 1483 1481 1480 1480 1480 1483 1483 1483 1481 1481 1480 1471 1458 1460 1460 1461 1462 1464 1466 1467 1469 1468 1467 1469 1475 1468 1457 1450 1450 1454 1455 1456 1457 1458 1461 1464 1466 1469 1471 1473 1475 1478
1510 1509 1508 1506 1503 1500 1497 1494 1491 1488 1485 1482 1480 1479 1479 1478 1480 1482 1482 1481 1481 1481 1480 1474 1458 1458 1459 1458 1456 1458 1459 1463 1462 1460 1459 1458 1459 1459 1455 1448 1450 1452 1456 1456 1457 1459 1460 1463 1466 1468 1471 1474 1475 1477
1507 1506 1505 1503 1501 1498 1495 1492 1489 1486 1482 1480 1479 1479 1480 1480 1481 1481 1480 1481 1481 1484 1479 1475 1467 1455 1459 1455 1456 1457 1455 1452 1452 1450 1451 1453 1448 1444 1443 1446 1449 1452 1454 1453 1455 1457 1460 1463 1465 1466 1469 1473 1475 1476
1504 1503 1502 1500 1499 1497 1493 1490 1487 1484 1480 1479 1480 1480 1480 1480 1480 1481 1480 1480 1480 1480 1479 1472 1467 1461 1462 1455 1450 1455 1451 1443 1440 1441 1443 1441 1436 1438 1440 1444 1448 1449 1451 1452 1453 1456 1458 1460 1463 1465 1468 1471 1474 1476
1500 1500 1499 1498 1496 1494 1492 1489 1486 1483 1481 1481 1481 1480 1479 1479 1479 1480 1478 1478 1477 1476 1473 1469 1469 1467 1464 1459 1453 1452 1446 1436 1436 1427 1431 1428 1428 1431 1436 1439 1442 1445 1447 1449 1450 1452 1455 1458 1461 1463 1466 1469 1472 1476
1497 1497 1496 1495 1494 1492 1490 1488 1486 1485 1484 1482 1480 1478 1478 1479 1478 1477 1472 1472 1471 1469 1470 1470 1468 1466 1463 1460 1454 1448 1442 1436 1429 1426 1429 1422 1417 1421 1425 1429 1433 1437 1441 1444 1447 1450 1453 1456 1459 1462 1464 1467 1471 1475
1492 1493 1493 1493 1492 1490 1488 1487 1486 1484 1481 1481 1481 1480 1479 1478 1478 1470 1464 1462 1467 1470 1468 1466 1463 1462 1459 1458 1452 1448 1437 1428 1428 1427 1418 1412 1413 1418 1422 1424 1425 1431 1436 1440 1444 1448 1451 1454 1457 1460 1462 1467 1470 1476
1488 1489 1489 1489 1489 1488 1487 1485 1484 1483 1482 1483 1481 1479 1475 1471 1466 1462 1465 1468 1468 1466 1464 1462 1460 1456 1453 1454 1449 1445 1430 1428 1424 1417 1410 1413 1417 1418 1419 1422 1426 1430 1435 1438 1442 1446 1450 1454 1457 1460 1463 1467 1473 1481
1484 1485 1486 1486 1486 1486 1485 1484 1483 1482 1484 1482 1479 1477 1469 1467 1467 1467 1468 1467 1465 1463 1461 1459 1455 1455 1451 1447 1446 1440 1431 1418 1411 1411 1415 1418 1419 1420 1421 1423 1427 1430 1433 1437 1442 1446 1450 1454 1458 1462 1468 1475 1481 1487
1480 1482 1483 1483 1484 1484 1483 1482 1482 1483 1482 1480 1478 1471 1469 1467 1466 1466 1466 1463 1462 1461 1458 1456 1455 1456 1448 1436 1440 1433 1419 1413 1416 1419 1421 1421 1421 1422 1423 1425 1428 1431 1435 1438 1443 1447 1452 1457 1462 1469 1477 1482 1486 1492
1477 1479 1480 1481 1482 1482 1482 1482 1483 1482 1480 1478 1471 1470 1470 1468 1466 1464 1463 1463 1462 1461 1456 1453 1455 1449 1440 1435 1438 1429 1425 1426 1425 1424 1422 1421 1421 1422 1424 1426 1429 1433 1436 1441 1446 1451 1457 1464 1469 1474 1480 1485 1491 1495
1474 1476 1478 1479 1480 1481 1482 1482 1483 1481 1478 1473 1471 1468 1469 1468 1466 1464 1462 1462 1462 1457 1454 1451 1449 1437 1431 1431 1430 1430 1430 1429 1426 1424 1423 1423 1424 1425 1426 1428 1431 1435 1439 1445 1452 1458 1464 1470 1476 1481 1485 1489 1492 1497
1472 1474 1477 1478 1480 1482 1483 1483 1482 1479 1475 1472 1470 1469 1468 1465 1463 1461 1459 1456 1455 1454 1453 1448 1444 1437 1436 1436 1435 1433 1430 1427 1425 1423 1422 1423 1425 1427 1429 1432 1435 1440 1447 1453 1459 1465 1472 1476 1480 1484 1489 1493 1497 1500
1471 1475 1477 1478 1480 1482 1482 1482 1481 1480 1474 1471 1470 1468 1467 1464 1461 1457 1454 1452 1450 1449 1447 1444 1442 1441 1439 1436 1433 1430 1426 1423 1421 1419 1422 1425 1428 1429 1433 1434 1441 1447 1453 1460 1467 1472 1476 1481 1486 1489 1492 1494 1497 1500
1473 1476 1478 1479 1481 1482 1482 1481 1479 1478 1475 1472 1470 1468 1464 1461 1458 1455 1453 1450 1449 1447 1446 1444 1441 1439 1436 1432 1430 1428 1424 1423 1424 1426 1428 1429 1430 1433 1437 1443 1447 1455 1462 1467 1472 1476 1481 1483 1487 1491 1494 1497 1500 1502
1475 1477 1480 1481 1482 1482 1482 1481 1480 1478 1476 1472 1470 1468 1465 1461 1458 1456 1454 1451 1449 1447 1445 1443 1441 1438 1435 1433 1431 1430 1430 1428 1431 1433 1434 1436 1439 1443 1447 1453 1458 1465 1470 1474 1477 1479 1483 1486 1490 1493 1496 1499 1503 1504
1477 1480 1482 1482 1483 1483 1483 1480 1479 1476 1474 1472 1470 1467 1463 1461 1460 1457 1455 1455 1453 1450 1447 1445 1443 1443 1442 1439 1437 1437 1437 1437 1438 1442 1443 1444 1449 1453 1458 1462 1466 1469 1475 1478 1480 1482 1485 1489 1493 1496 1499 1502 1503 1504
1481 1483 1483 1482 1482 1482 1480 1479 1477 1476 1474 1472 1469 1466 1466 1464 1463 1462 1462 1460 1458 1454 1451 1451 1450 1450 1448 1447 1446 1446 1447 1449 1450 1452 1455 1456 1457 1461 1466 1469 1474 1478 1482 1485 1487 1488 1493 1496 1498 1500 1502 1504 1505 1506
1485 1485 1485 1483 1482 1482 1481 1478 1477 1475 1473 1471 1468 1470 1468 1468 1468 1469 1469 1467 1463 1461 1459 1458 1459 1458 1458 1459 1460 1461 1462 1463 1464 1465 1468 1470 1471 1474 1477 1481 1484 1487 1489 1491 1493 1495 1497 1500 1501 1502 1503 1505 1506 1507
1484 1484 1484 1482 1482 1482 1479 1476 1475 1474 1473 1471 1471 1472 1472 1473 1477 1480 1481 1479 1473 1471 1470 1468 1469 1469 1469 1470 1470 1472 1474 1475 1475 1476 1480 1482 1484 1485 1487 1489 1491 1493 1495 1496 1497 1498 1500 1502 1503 1504 1505 1505 1506 1508
1483 1482 1483 1482 1482 1481 1479 1477 1476 1476 1471 1473 1474 1474 1476 1481 1488 1491 1490 1488 1485 1484 1482 1481 1479 1479 1480 1480 1481 1482 1482 1483 1482 1484 1486 1488 1489 1491 1493 1494 1495 1496 1497 1498 1500 1501 1502 1504 1505 1506 1507 1507 1507 1507
1483 1482 1482 1481 1480 1479 1478 1475 1472 1474 1474 1474 1476 1481 1485 1492 1497 1498 1497 1497 1496 1493 1492 1490 1488 1488 1489 1489 1490 1490 1490 1491 1491 1492 1492 1492 1493 1494 1494 1495 1496 1497 1499 1500 1502 1503 1505 1506 1507 1507 1507 1508 1508 1507
1483 1482 1482 1480 1478 1477 1477 1476 1477 1478 1478 1477 1482 1488 1495 1497 1498 1499 1500 1500 1500 1499 1499 1498 1497 1497 1497 1496 1496 1496 1497 1497 1497 1497 1497 1498 1499 1501 1501 1502 1502 1502 1503 1503 1503 1504 1505 1506 1507 1507 1507 1507 1507 1506
1486 1483 1482 1482 1482 1484 1483 1484 1485 1488 1489 1491 1492 1495 1498 1500 1501 1502 1503 1503 1503 1504 1503 1503 1502 1502 1502 1502 1502 1502 1502 1501 1502 1502 1502 1503 1504 1505 1505 1506 1506 1506 1507 1507 1507 1506 1505 1506 1506 1507 1507 1507 1507 1506
1489 1489 1488 1490 1491 1494 1495 1496 1497 1498 1498 1499 1501 1501 1503 1505 1506 1507 1507 1508 1508 1508 1508 1507 1507 1507 1507 1507 1507 1507 1508 1508 1507 1507 1507 1508 1508 1508 1508 1509 1509 1509 1510 1510 1510 1510 1509 1509 1508 1508 1507 1506 1505 1504
1497 1496 1495 1495 1498 1501 1502 1502 1503 1503 1504 1504 1504 1506 1507 1509 1510 1512 1512 1513 1513 1513 1513 1513 1513 1513 1513 1513 1513 1512 1512 1513 1512 1512 1512 1512 1512 1512 1512 1512 1512 1512 1511 1511 1510 1510 1509 1508 1507 1506 1504 1503 1501 1499
1502 1502 1503 1504 1505 1506 1507 1507 1508 1509 1510 1511 1511 1512 1512 1514 1516 1517 1518 1518 1518 1518 1518 1518 1518 1518 1517 1517 1517 1517 1516 1516 1515 1515 1515 1514 1514 1514 1513 1513 1513 1512 1511 1510 1509 1508 1506 1504 1502 1501 1500 1498 1496 1494